This demonstration page uses our WeatherBlox Daily Observations layout. Learn more.

Left ArrowRight Arrow

Hourly Observations for May 3, 2017

Temp ( °F °C ) Dew Point ( °F °C ) Humidity (%) Winds ( mph kmh ) Pressure ( in mb ) Visibility ( mi km ) Precip ( " mm )
12:54 am 00:54 Clear 49 9.4 43 6.1 80 80 Calm 30.02 1017 10 16.0934 0 0
1:54 am 01:54 Clear 51 10.6 45 7.2 80 80 Calm 30.02 1017 10 16.0934 0 0
2:54 am 02:54 Partly Cloudy 47 8.3 44 6.7 90 90 NNW 3 6 30.01 1016 10 16.0934 0 0
3:54 am 03:54 Cloudy 46 7.8 43 6.1 89 89 NNE 3 6 30 1016 10 16.0934 0 0
4:54 am 04:54 Cloudy 48 8.9 44 6.7 86 86 Calm 30 1016 10 16.0934 0 0
5:54 am 05:54 Cloudy 46 7.8 43 6.1 89 89 Calm 30.02 1017 10 16.0934 0 0
6:54 am 06:54 Cloudy 48 8.9 44 6.7 86 86 Calm 30.04 1017 10 16.0934 0 0
7:54 am 07:54 Mostly Sunny 50 10 46 7.8 86 86 Calm 30.06 1018 10 16.0934 0 0
8:54 am 08:54 Sunny 53 11.7 48 8.9 83 83 S 3 6 30.06 1018 10 16.0934 0 0
9:54 am 09:54 Sunny 57 13.9 47 8.3 69 69 VRB 7 11 30.05 1018 10 16.0934 0 0
10:54 am 10:54 Mostly Cloudy 63 17.2 47 8.3 56 56 SE 8 13 30.04 1017 10 16.0934 0 0
11:54 am 11:54 Mostly Cloudy 63 17.2 46 7.8 54 54 SW 3 6 30.03 1017 10 16.0934 0 0
12:54 pm 12:54 Cloudy 64 17.8 46 7.8 52 52 NW 7 11 30.02 1017 10 16.0934 0 0
1:14 pm 13:14 Mostly Cloudy with Nearby Thunderstorms 64 18 46 8 52 52 W 7 11 30 1016 10 16.0934 0 0
1:34 pm 13:34 Cloudy with Thunderstorms 59 15 45 7 59 59 SE 13 20 30.03 1017 10 16.0934 0 0
1:49 pm 13:49 Mostly Cloudy with Nearby Thunderstorms 61 16 45 7 55 55 SE 12 19 30.03 1017 10 16.0934 0 0
1:54 pm 13:54 Mostly Cloudy with Nearby Thunderstorms 60 15.6 44 6.7 56 56 SSE 10 17 30.02 1017 10 16.0934 0 0
2:01 pm 14:01 Mostly Cloudy 61 16 45 7 55 55 SSE 12 19 30.03 1017 10 16.0934 0 0
2:17 pm 14:17 Mostly Cloudy with Thunderstorms 59 15 46 7.8 62 62 SE 9 15 30.03 1017 10 16.0934 0 0
2:44 pm 14:44 Mostly Cloudy 64 18 46 8 52 52 ESE 16 26 30 1016 10 16.0934 0 0
2:54 pm 14:54 Mostly Cloudy 61 16.1 46 7.8 58 58 ESE 17 28 30.03 1017 10 16.0934 0 0
3:54 pm 15:54 Mostly Cloudy 62 16.7 47 8.3 58 58 ESE 15 24 30.02 1017 10 16.0934 0 0
4:54 pm 16:54 Cloudy with Rain 54 12.2 51 10.6 90 90 N 10 17 30.07 1018 3 4.82802 0.02 0.508
5:12 pm 17:12 Cloudy with Rain 53 11.7 50 10 89 89 Calm 30.09 1019 2 3.21868 0.06 1.524
5:38 pm 17:38 Cloudy with Light Rain 54 12 52 11 94 94 Calm 30.06 1018 8 12.87472 0 0
5:54 pm 17:54 Cloudy with Light Rain 54 12.2 50 10 87 87 Calm 30.09 1019 10 16.0934 0.12 3.048
6:54 pm 18:54 Partly Cloudy 54 12.2 50 10 87 87 S 7 11 30.07 1018 10 16.0934 0.01 0.254
7:54 pm 19:54 Mostly Sunny 54 12.2 48 8.9 80 80 Calm 30.07 1018 10 16.0934 0 0
8:54 pm 20:54 Clear 52 11.1 49 9.4 89 89 NW 6 9 30.09 1019 10 16.0934 0 0
9:54 pm 21:54 Cloudy 52 11.1 49 9.4 89 89 N 10 17 30.14 1021 10 16.0934 0 0
10:54 pm 22:54 Cloudy with Light Rain 52 11.1 46 7.8 80 80 N 8 13 30.14 1021 9 14.48406 0 0.0254
11:54 pm 23:54 Cloudy with Light Rain 50 10 47 8.3 89 89 VRB 3 6 30.13 1020 7 11.26538 0.01 0.254

Powered by AerisWeather